Jackson, WY

11:02 AM MST on December 05, 2019 (GMT -0700)
Jackson Hole

Weather History for KJAC - October, 2019

Change the Weather History Date:

Tuesday, October 29, 2019

  Actual Average Record
Temperature  
Mean Temperature 11 °F -  
Max Temperature 21 °F 47 °F 66 °F (1962)
Min Temperature 0 °F 17 °F 2 °F (1971)
Degree Days  
Heating Degree Days 54    
Moisture  
Dew Point 2 °F    
Average Humidity 67    
Maximum Humidity 86    
Minimum Humidity 40    
Precipitation  
Precipitation 0.00 in - - ()
Sea Level Pressure  
Sea Level Pressure 30.12 in    
Wind  
Wind Speed 14 mph ()    
Max Wind Speed 26 mph    
Max Gust Speed 32 mph    
Visibility 6.4 miles    
Events Snow    
Averages and records for this station are not official NWS values.
T = Trace of Precipitation, MM = Missing Value Source: Averaged Metar Reports

Daily Weather History Graph

Daily Weather History Graph

Search for Another Location

Airport or City:

Astronomy

Oct. 29, 2019 Rise Set
Actual Time 7:54 AM MDT 6:18 PM MDT
Civil Twilight 7:24 AM MDT 6:47 PM MDT
Nautical Twilight 6:51 AM MDT 7:21 PM MDT
Astronomical Twilight 6:17 AM MDT 7:54 PM MDT
Moon 9:34 AM MDT (10/29) 7:42 PM MDT (10/29)
Length of Visible Light 11h 22m
Length of Day
10h 23m
Waxing Crescent, 3% of the Moon is Illuminated
Oct 29
Waxing Crescent
Nov 4
First Quarter
Nov 12
Full
Nov 19
Last Quarter
Nov 26
New

Hourly Weather History & Observations

Time (MDT) Temp. Windchill Dew Point Humidity Pressure Visibility Wind Dir Wind Speed Gust Speed Precip Events Conditions
12:56 AM 17.1 °F 11.7 °F 12.9 °F 84% 30.02 in 6.0 mi ENE 3.5 mph - 0.00 in Snow Light Snow
1:23 AM 17.6 °F 5.0 °F 12.2 °F 79% 29.81 in 2.5 mi North 11.5 mph - 0.00 in Snow Light Snow
1:31 AM 15.8 °F 1.4 °F 12.2 °F 86% 29.81 in 1.8 mi NNE 13.8 mph - 0.00 in Snow Light Snow
1:56 AM 15.1 °F -1.1 °F 10.9 °F 84% 30.01 in 1.8 mi NNE 17.3 mph - 0.00 in Snow Light Snow
2:56 AM 12.9 °F -5.3 °F 8.1 °F 81% 30.03 in 1.8 mi NNE 20.7 mph 27.6 mph 0.00 in Snow Light Snow
3:15 AM 12.2 °F -4.8 °F 8.6 °F 85% 29.82 in 2.0 mi NNE 17.3 mph 25.3 mph 0.00 in Snow Light Snow
3:27 AM 12.2 °F -5.8 °F 6.8 °F 79% 29.82 in 3.0 mi NNE 19.6 mph - 0.00 in Snow Light Snow
3:45 AM 12.2 °F -4.8 °F 6.8 °F 79% 29.82 in 5.0 mi NNE 17.3 mph - 0.00 in Snow Light Snow
3:56 AM 10.9 °F -7.9 °F 6.1 °F 81% 30.05 in 6.0 mi NNE 20.7 mph 28.8 mph 0.00 in Snow Light Snow
4:49 AM 10.4 °F -8.6 °F 5.0 °F 79% 29.83 in 4.0 mi North 20.7 mph 31.1 mph 0.00 in Snow Light Snow
4:56 AM 10.9 °F -8.8 °F 5.0 °F 77% 30.05 in 5.0 mi North 23.0 mph 29.9 mph 0.00 in Snow Light Snow
5:29 AM 10.4 °F -8.2 °F 5.0 °F 79% 29.85 in 6.0 mi NNE 19.6 mph 27.6 mph 0.00 in Snow Light Snow
5:56 AM 10.0 °F -7.6 °F 3.9 °F 76% 30.10 in 6.0 mi NNE 17.3 mph 26.5 mph 0.00 in Snow Light Snow
6:56 AM 8.1 °F -13.0 °F 1.0 °F 73% 30.14 in 5.0 mi NNE 24.2 mph 28.8 mph 0.00 in Snow Light Snow
7:22 AM 6.8 °F -15.5 °F -0.4 °F 72% 29.92 in 4.0 mi NNE 26.5 mph 32.2 mph 0.00 in Snow Light Snow
7:56 AM 6.1 °F -15.7 °F -2.0 °F 69% 30.21 in 2.5 mi NNE 24.2 mph 31.1 mph 0.00 in Snow Light Snow
8:38 AM 5.0 °F -17.1 °F -2.2 °F 72% 29.97 in 3.0 mi NNE 24.2 mph 29.9 mph 0.00 in Snow Light Snow
8:51 AM 5.0 °F -16.7 °F -4.0 °F 66% 29.98 in 4.0 mi NNE 23.0 mph 27.6 mph 0.00 in Snow Light Snow
8:56 AM 6.1 °F -13.8 °F -2.9 °F 67% 30.26 in 4.0 mi NNE 19.6 mph 27.6 mph 0.00 in Snow Light Snow
9:22 AM 6.8 °F -13.4 °F -2.2 °F 67% 30.00 in 8.0 mi NNE 20.7 mph 28.8 mph 0.00 in Snow Light Snow
10:56 AM 10.9 °F -5.4 °F -2.9 °F 54% 30.29 in 10.0 mi NE 15.0 mph 24.2 mph N/A   Overcast
11:56 AM 14.0 °F -2.0 °F -4.0 °F 45% 30.28 in 10.0 mi NE 16.1 mph 25.3 mph N/A   Clear
12:56 PM 17.1 °F 0.6 °F -0.9 °F 45% 30.26 in 10.0 mi North 19.6 mph - N/A   Clear
1:56 PM 19.0 °F 3.6 °F -0.9 °F 42% 30.25 in 10.0 mi North 18.4 mph 21.9 mph N/A   Clear
2:56 PM 19.0 °F 4.0 °F -0.9 °F 42% 30.27 in 10.0 mi North 17.3 mph - N/A   Clear
3:56 PM 21.0 °F 9.3 °F -0.0 °F 40% 30.28 in 10.0 mi North 11.5 mph - N/A   Clear
5:56 PM 17.1 °F 6.6 °F -0.0 °F 47% 30.35 in 10.0 mi NNE 8.1 mph - N/A   Clear
6:13 PM 15.8 °F 6.1 °F -0.4 °F 49% 30.10 in 10.0 mi NE 6.9 mph - N/A   Clear
6:56 PM 12.9 °F 3.8 °F -2.9 °F 49% 30.41 in 10.0 mi NNE 5.8 mph - N/A   Clear
7:56 PM 10.0 °F -0.9 °F -4.0 °F 53% 30.46 in 10.0 mi NE 6.9 mph - N/A   Clear
8:56 PM 8.1 °F -2.0 °F -5.1 °F 55% 30.49 in 10.0 mi NNW 5.8 mph - N/A   Clear
10:56 PM 1.9 °F -7.6 °F -6.0 °F 69% 30.54 in 10.0 mi NNE 4.6 mph - N/A   Clear
11:56 PM -0.9 °F -14.1 °F -8.0 °F 72% 30.56 in 10.0 mi NNE 6.9 mph - N/A   Clear